Regional Weather Roundup
Issued by NWS

Home | Current Version | Previous Version | Text Only | Print | Product List | Glossary Off
Versions: 1 2 3 4 5 6 7 8 9 10 11 12 13 14 15 16 17 18 19 20 21 22 23 24 25 26 27 28 29 30 31 32 33 34 35 36 37 38 39 40 41 42 43 44 45 46 47 48 49 50

000
ASUS44 KMEG 031810
RWRTN
TENNESSEE HOURLY STATE WEATHER ROUNDUP
NATIONAL WEATHER SERVICE MEMPHIS TN
100 PM CDT MON AUG 03 2015

TNZ002-004-019-021-049-052-054-088>092-031900-
WEST TENNESSEE

CITY           SKY/WX    TMP DP  RH WIND       PRES   REMARKS
MEMPHIS INTL   MOSUNNY   96  66  37 N8        29.95F HX  99
NWS MEMPHIS      N/A     93 N/A N/A MISG        N/A
JACKSON        SUNNY     94  69  44 NW13      29.95F HX  99
DYERSBURG        N/A    N/A N/A N/A MISG        N/A
PARIS          SUNNY     90  72  55 VRB6      29.95S HX  96
LEXINGTON      SUNNY     90  70  51 NW5       29.94F HX  95
$$

TNZ008-025-027-028-033-062-065-066-031900-
NORTH MIDDLE TENNESSEE

CITY           SKY/WX    TMP DP  RH WIND       PRES   REMARKS
NASHVILLE      MOSUNNY   92  66  42 VRB7      29.95F HX  94
CLARKSVILLE    SUNNY     90  71  53 SW8       29.93S HX  96
SMYRNA         MOSUNNY   98  68  37 VRB6      29.95F HX 103
CROSSVILLE     PTSUNNY   85  64  49 VRB6      30.03S
$$

TNZ061-075-076-078-094-096-097-031900-
SOUTH MIDDLE TENNESSEE

CITY           SKY/WX    TMP DP  RH WIND       PRES   REMARKS
FAYETTEVILLE     N/A     88  64  45 E10       29.98S
TULLAHOMA      SUNNY     88  64  45 VRB5      29.99F
WINCHESTER     SUNNY     88  64  45 N7        29.98F
COLUMBIA       MOSUNNY   93  70  46 VRB5      29.94F HX  99
SHELBYVILLE    MOSUNNY   91  72  52 NW9       29.97F HX  98
$$

TNZ017-018-042-046-047-031900-
NORTHEAST TENNESSEE

CITY           SKY/WX    TMP DP  RH WIND       PRES   REMARKS
TRI CITIES     MOSUNNY   86  56  35 VRB6      29.99S
ELIZABETHTON   CLEAR     84  55  37 N3        29.99S
$$

TNZ012-013-036-069-073-074-031900-
CENTRAL EAST TENNESSEE

CITY           SKY/WX    TMP DP  RH WIND       PRES   REMARKS
KNOXVILLE      MOSUNNY   89  54  30 VRB7      29.96F
OAK RIDGE      SUNNY     90  61  37 VRB6      29.98S HX  90
GATLINBURG       N/A     90  54  29 SW3       29.95F
MORRISTOWN     CLEAR     88  64  45 SW6       29.99F
$$

TNZ083-085-099-031900-
SOUTHEAST TENNESSEE

CITY           SKY/WX    TMP DP  RH WIND       PRES   REMARKS
CHATTANOOGA    MOSUNNY   91  54  28 N9        29.96F
$$

SKY/WX REPORTED AS FAIR MEANS FEW OR NO CLOUDS BELOW
12 THOUSAND FEET.




USA.gov is the U.S. government's official web portal to all federal, state and local government web resources and services.